Вернуться в каталог

STARLINK-3789

АктивенСвязьVLEO
NORAD 52283·PAYLOAD·🇺🇸 United States

Запущен Apr 21, 2022 с Cape Canaveral Space Force Station

Loading…

Ближайшие Пролёты (ближайшие 24 часа)

TLE

СвежийSource: CelesTrak SupGP

Эпоха: Sep 15, 2026, 01:49 UTC

1 52283C 22041Y   26258.07618056  .00050050  00000+0  15188-2 0  2587
2 52283  53.1607 332.9793 0001061  74.5806 314.4273 15.33521920    14

Отслеживайте STARLINK-3789 в реальном времени с AllMySat

Download on the App Store